Regional Weather Roundup
Issued by NWS

Home | Current Version | Previous Version | Text Only | Print | Product List | Glossary Off
Versions: 1 2 3 4 5 6 7 8 9 10 11 12 13 14 15 16 17 18 19 20 21 22 23 24 25 26 27 28 29 30 31 32 33 34 35 36 37 38 39 40 41 42 43 44 45 46 47 48 49 50

000
ASUS43 KLOT 050322
RWRIL

ILLINOIS REGIONAL WEATHER ROUNDUP
NATIONAL WEATHER SERVICE CHICAGO/ROMEOVILLE IL
1000 PM CDT FRI SEP 04 2015

NOTE: "FAIR" INDICATES FEW OR NO CLOUDS BELOW 12,000 FEET WITH NO
SIGNIFICANT WEATHER AND/OR OBSTRUCTIONS TO VISIBILITY.

* THESE STATIONS ARE NOT UNDER NWS QUALITY CONTROL. THEY ALSO MAY NOT
  REPORT WEATHER SUCH AS PRECIPITATION OR FOG.

ILZ001-002-007-009-015-016-024-050400-
NORTHWEST ILLINOIS

CITY           SKY/WX    TMP DP  RH WIND       PRES   REMARKS
MOLINE         CLEAR     74  70  87 CALM      30.00R
STERLING*      PTCLDY    75  73  94 E3        30.00S
SAVANNA*       CLEAR     77  71  80 E3        30.01R
$$

ILZ003-004-008-010-011-017-018-050400-
NORTH CENTRAL ILLINOIS

CITY           SKY/WX    TMP DP  RH WIND       PRES   REMARKS
ROCKFORD       PTCLDY    74  67  78 E8        30.05R
FREEPORT*      PTCLDY    74  71  89 SE9       30.05R
ROCHELLE*      CLEAR     73  70  89 E6        30.05R
DE KALB*       PTCLDY    71  68  89 E6        30.07R
PERU*          CLEAR     81  69  66 CALM      30.03R HX  83
$$

ILZ005-006-012>014-019>023-050400-
NORTHEAST ILLINOIS

CITY           SKY/WX    TMP DP  RH WIND       PRES   REMARKS
CHICAGO-OHARE  PTCLDY    72  67  84 E5        30.06R
CHICAGO-MIDWAY PTCLDY    74  66  76 E6        30.06R
AURORA         CLEAR     73  68  84 NE6       30.05R
LANSING*       CLEAR     71  68  91 CALM      30.06R
JOLIET*        CLEAR     74  69  82 E5        30.06R
WAUKEGAN       PTCLDY    66  66 100 CALM      30.06S
DUPAGE AIRPORT CLEAR     72  66  81 E5        30.06R
KANKAKEE*      PTCLDY    72  68  89 SE5       30.07R
WHEELING       PTCLDY    70  67  90 SE5       30.07S
MORRIS*        PTCLDY    73  69  88 E7        30.04R
ROMEOVILLE*    PTCLDY    72  64  76 E9        30.06R
NORTHERLY ISL    N/A     71  67  87 E3          N/A
$$

LMZ740>746-050400-
SOUTHERN LAKE MICHIGAN

STATION/POSITION SKY/WX   TEMP    WIND        PRES    VSBY  WAVE
                          AIR SEA DIR/SP/G                  HT/PER
                          (F)     (DEG/KT/KT) (MB)    (MI)  (FT/S)
SOUTHERN BUOY              68 71   90/  4/  4 1017.7
WILMETTE HARBOR            71 71  270/  4/  4   N/A           1/ 3
HARRISON CRIB              71      90/  5/  6   N/A
BURNHAM HARBOR             71      30/  3/  6   N/A
CALUMET HARBOR             72      30/  4/  5   N/A
BURNS HARBOR               72      70/ 11/ 13 1017.9R
MICHIGAN CITY              71      40/  4/  5   N/A
MICHIGAN CITY 6N           73 74   50/  6/  8   N/A           1/ 4
ST. JOSEPH                 71 76   80/  6/  6   N/A           1
$$

ILZ025>027-034>036-040-047-049-050-058-095>099-050400-
WEST-CENTRAL ILLINOIS

CITY           SKY/WX    TMP DP  RH WIND       PRES   REMARKS
QUINCY         CLEAR     79  69  71 S5        30.02R HX  81
GALESBURG*     CLEAR     73  69  89 CALM      30.03R
MACOMB*        CLEAR     73  68  83 S5        30.04R
JACKSONVILLE*  CLEAR     78  70  75 S3        30.02R HX  81
PITTSFIELD*    CLEAR     77  71  80 CALM      30.04R
$$

ILZ028>032-037-038-041>044-048-051>054-059>061-050400-
CENTRAL ILLINOIS

CITY           SKY/WX    TMP DP  RH WIND       PRES   REMARKS
PONTIAC        PTCLDY    73  69  86 SE5       30.05R
BLOOMINGTON    PTCLDY    73  68  84 SE8       30.06S
DECATUR        PTCLDY    76  67  73 E15       30.08R
PEORIA         CLEAR     81  71  71 CALM      30.02R HX  85
LACON*         MOCLDY    79  71  74 CALM      30.01R HX  82
LINCOLN*       PTCLDY    79  66  65 E7        30.04R HX  81
SPRINGFIELD    CLEAR     78  69  73 CALM      30.03R HX  80
TAYLORVILLE    CLEAR     73  70  88 CALM      30.05R
$$

ILZ033-039-045-046-055>057-062-063-050400-
EAST-CENTRAL ILLINOIS

CITY           SKY/WX    TMP DP  RH WIND       PRES   REMARKS
CHAMPAIGN      CLOUDY    72  64  76 SE10      30.07F
RANTOUL*       MOCLDY    71  68  89 S9        30.08R
MATTOON        CLOUDY    73  63  70 N25G41    30.12R
PARIS*         TSTM      70  66  87 CALM      30.09F
$$

ILZ079-100>102-050400-
SOUTHWEST ILLINOIS

CITY           SKY/WX    TMP DP  RH WIND       PRES   REMARKS
ALTON          CLEAR     73  70  88 CALM      30.03R
BELLEVILLE     CLEAR     75  75 100 CALM      30.02S
CAHOKIA*       CLEAR     79  71  76 S3        30.02R HX  82
SPARTA*        CLEAR     74  72  92 CALM      30.04S
$$

ILZ064>066-069>071-074>076-080>082-084>086-088>090-092>094-050400-
SOUTH-CENTRAL ILLINOIS

CITY           SKY/WX    TMP DP  RH WIND       PRES   REMARKS
CARBONDALE     CLEAR     73  70  90 CALM      30.04R
CAIRO*         CLEAR     71  71 100 CALM      30.03R
EFFINGHAM*     PTCLDY    74  70  86 CALM      30.07R
MARION         CLEAR     75  72  88 CALM      30.05R
MT. VERNON     CLEAR     72  64  78 CALM      30.06R
CENTRALIA*     CLEAR     73  72  97 CALM      30.04R
SALEM*         CLEAR     74  71  88 CALM      30.05R
METROPOLIS*    CLEAR     72  72  99 CALM      30.05R FOG
$$

ILZ067-068-072-073-078-083-087-091-050400-
SOUTHEAST ILLINOIS

CITY           SKY/WX    TMP DP  RH WIND       PRES   REMARKS
LAWRENCEVILLE  CLEAR     76  71  85 E5        30.06R
FLORA*         CLEAR     73  68  85 CALM      30.06R
FAIRFIELD*     CLEAR     73  70  91 CALM      30.04R
HARRISBURG*    CLEAR     74  71  90 CALM      30.05R
ROBINSON*      PTCLDY    76  70  80 NE8       30.08R
CARMI*         CLEAR     71  69  93 CALM      30.05R
$$

ABBREVIATIONS USED IN REMARKS
   TC - TEMPERATURE IN CELSIUS
  WCI - WIND CHILL INDEX
   HX - HEAT INDEX
  VSB - VISIBILITY
$$



USA.gov is the U.S. government's official web portal to all federal, state and local government web resources and services.